GW0378 Weather Reports


time (UTC)temp
F
wind
direction
speed
knots
gust
knots
rain 1hr
in
rain 24hr
in
rain mn
in
humidity
%
barometer
mb
20260507021040 63 135 3.5 8.7 0.00 0.00 0.00 51 1011.5
20260507020538 63 134 3.5 8.7 0.00 0.00 0.00 53 1011.7
20260507020034 62 108 4.3 6.1 0.00 0.00 0.00 54 1011.7
20260507015532 63 113 5.2 5.2 0.00 0.00 0.00 55 1011.5
20260507015029 63 123 4.3 4.3 0.00 0.00 0.00 56 1011.6
20260507014526 63 108 3.5 8.7 0.00 0.00 0.00 55 1011.7
20260507014021 64 70 2.6 7.0 0.00 0.00 0.00 50 1011.6
20260507013518 64 129 4.3 7.8 0.00 0.00 0.00 51 1011.6
20260507013016 64 106 2.6 5.2 0.00 0.00 0.00 54 1011.8
20260507012513 63 113 4.3 7.8 0.00 0.00 0.00 56 1011.7
20260507012009 63 145 2.6 6.1 0.00 0.00 0.00 60 1011.8
20260507011506 63 103 1.7 4.3 0.00 0.00 0.00 62 1011.6
20260507011002 63 92 4.3 4.3 0.00 0.00 0.00 62 1011.6
20260507010456 64 75 1.7 4.3 0.00 0.00 0.00 60 1011.9
20260507005953 64 111 2.6 2.6 0.00 0.00 0.00 60 1011.8
20260507005451 65 101 1.7 1.7 0.00 0.00 0.00 55 1012.0
20260507004947 65 90 0.0 0.0 0.00 0.00 0.00 57 1011.8
20260507004444 65 82 0.9 1.7 0.00 0.00 0.00 57 1011.6
20260507003942 65 117 0.0 1.7 0.00 0.00 0.00 56 1011.7
20260507003437 64 123 0.0 0.0 0.00 0.00 0.00 58 1011.9
20260507002932 64 95 2.6 4.3 0.00 0.00 0.00 58 1011.9
20260507002428 64 105 6.1 6.1 0.00 0.00 0.00 55 1011.8
20260507001926 65 155 2.6 4.3 0.00 0.00 0.00 57 1011.9
20260507001422 66 90 2.6 4.3 0.00 0.00 0.00 53 1011.9
20260507000920 66 8 0.0 4.3 0.00 0.00 0.00 52 1011.9
20260507000415 68 20 2.6 2.6 0.00 0.00 0.00 44 1011.5
20260506235911 68 0 0.9 2.6 0.00 0.00 0.00 42 1011.8
20260506235409 68 68 1.7 2.6 0.00 0.00 0.00 46 1011.8
20260506234904 68 270 4.3 5.2 0.00 0.00 0.00 43 1012.1
20260506234402 68 263 2.6 4.3 0.00 0.00 0.00 42 1012.1
20260506233900 68 210 3.5 3.5 0.00 0.00 0.00 44 1011.8
20260506233355 68 180 0.9 1.7 0.00 0.00 0.00 47 1011.8
20260506232852 67 90 0.0 4.3 0.00 0.00 0.00 50 1011.9
20260506232348 66 243 3.5 14.8 0.00 0.00 0.00 48 1012.1
20260506231844 66 276 3.5 12.2 0.00 0.00 0.00 51 1012.6
20260506231342 66 294 9.6 25.2 0.00 0.00 0.00 51 1012.8
20260506230839 69 270 3.5 7.0 0.00 0.00 0.00 40 1012.5
20260506230336 69 348 0.9 2.6 0.00 0.00 0.00 39 1011.9
20260506225832 69 270 0.0 3.5 0.00 0.00 0.00 37 1012.1
20260506225330 70 315 2.6 4.3 0.00 0.00 0.00 37 1011.7
20260506224827 70 291 0.0 3.5 0.00 0.00 0.00 37 1012.0
20260506224324 70 257 1.7 4.3 0.00 0.00 0.00 38 1011.9
20260506223820 70 301 3.5 4.3 0.00 0.00 0.00 37 1012.0
20260506223315 71 261 1.7 3.5 0.00 0.00 0.00 36 1012.0
20260506222813 73 194 0.9 1.7 0.00 0.00 0.00 36 1012.5
20260506222308 72 117 0.9 2.6 0.00 0.00 0.00 36 1012.4
20260506221806 73 77 0.0 2.6 0.00 0.00 0.00 38 1012.6
20260506221304 71 170 2.6 2.6 0.00 0.00 0.00 36 1012.8
20260506220801 72 23 0.0 2.6 0.00 0.00 0.00 37 1012.7
20260506220256 71 213 1.7 2.6 0.00 0.00 0.00 35 1012.8
20260506215753 70 279 1.7 2.6 0.00 0.00 0.00 35 1012.7
20260506215249 69 0 2.6 3.5 0.00 0.00 0.00 35 1012.9
20260506214745 71 311 2.6 4.3 0.00 0.00 0.00 34 1013.1
20260506214242 69 213 3.5 4.3 0.00 0.00 0.00 35 1013.1
20260506213740 69 283 0.0 5.2 0.00 0.00 0.00 37 1013.1
20260506213232 68 252 2.6 4.3 0.00 0.00 0.00 37 1013.5
20260506212729 68 98 0.0 2.6 0.00 0.00 0.00 35 1013.5
20260506212224 67 345 0.9 4.3 0.00 0.00 0.00 37 1013.6
20260506211720 68 111 0.9 1.7 0.00 0.00 0.00 36 1013.7
20260506211216 66 354 0.9 3.5 0.00 0.00 0.00 37 1013.7
20260506210713 66 26 0.9 3.5 0.00 0.00 0.00 36 1014.1
20260506210210 67 9 1.7 3.5 0.00 0.00 0.00 36 1014.0
20260506205707 66 315 2.6 3.5 0.00 0.00 0.00 37 1014.2
20260506205202 65 250 1.7 5.2 0.00 0.00 0.00 38 1014.1
20260506204700 66 255 1.7 6.1 0.00 0.00 0.00 37 1014.4
20260506204156 66 124 0.0 2.6 0.00 0.00 0.00 35 1014.1
20260506203655 66 56 1.7 3.5 0.00 0.00 0.00 37 1014.6
20260506203152 63 74 1.7 5.2 0.00 0.00 0.00 38 1014.2
20260506202650 65 57 1.7 4.3 0.00 0.00 0.00 36 1014.1
20260506202145 64 160 0.9 3.5 0.00 0.00 0.00 36 1014.6
20260506201642 62 40 1.7 5.2 0.00 0.00 0.00 38 1014.6
20260506201139 63 277 7.0 7.0 0.00 0.00 0.00 38 1014.6
20260506200636 64 235 3.5 6.1 0.00 0.00 0.00 39 1014.7
20260506200133 62 213 2.6 4.3 0.00 0.00 0.00 38 1014.8
20260506195629 61 293 4.3 6.1 0.00 0.00 0.00 40 1014.8
20260506195125 62 11 3.5 4.3 0.00 0.00 0.00 41 1015.0
20260506194623 61 261 0.0 1.7 0.00 0.00 0.00 39 1015.1
20260506194119 60 266 4.3 7.8 0.00 0.00 0.00 39 1015.2
20260506193617 60 277 2.6 4.3 0.00 0.00 0.00 41 1015.1
20260506193114 60 276 4.3 5.2 0.00 0.00 0.00 39 1015.5
20260506192611 59 259 3.5 7.0 0.00 0.00 0.00 40 1015.5
20260506192107 59 249 0.9 7.0 0.00 0.00 0.00 40 1015.5
20260506191604 59 305 2.6 5.2 0.00 0.00 0.00 41 1015.6
20260506191059 59 18 0.0 3.5 0.00 0.00 0.00 40 1016.0
20260506190557 60 312 4.3 7.0 0.00 0.00 0.00 41 1015.9
20260506190054 58 23 0.9 6.1 0.00 0.00 0.00 46 1016.0
20260506185551 59 279 2.6 4.3 0.00 0.00 0.00 45 1016.1
20260506185047 58 36 1.7 4.3 0.00 0.00 0.00 43 1016.2
20260506184545 57 66 0.0 7.0 0.00 0.00 0.00 42 1016.1
20260506184042 57 7 0.9 5.2 0.00 0.00 0.00 42 1016.4
20260506183538 55 248 1.7 5.2 0.00 0.00 0.00 49 1016.6
20260506183035 56 78 1.7 4.3 0.00 0.00 0.00 42 1016.5
20260506182532 55 281 1.7 5.2 0.00 0.00 0.00 46 1016.5
20260506182029 55 292 1.7 4.3 0.00 0.00 0.00 47 1016.6
20260506181527 54 300 4.3 5.2 0.00 0.00 0.00 45 1016.5
20260506181024 55 188 1.7 3.5 0.00 0.00 0.00 43 1016.7
20260506180520 54 294 3.5 4.3 0.00 0.00 0.00 47 1016.6
20260506180017 53 330 3.5 6.1 0.00 0.00 0.00 47 1016.7
20260506175513 53 250 3.5 4.3 0.00 0.00 0.00 46 1016.8
20260506175010 54 270 0.9 3.5 0.00 0.00 0.00 48 1017.0
20260506174508 53 243 0.0 3.5 0.00 0.00 0.00 45 1017.1
20260506174004 52 246 3.5 5.2 0.00 0.00 0.00 46 1016.9
20260506173502 52 82 1.7 5.2 0.00 0.00 0.00 48 1017.0
20260506172959 52 265 1.7 5.2 0.00 0.00 0.00 49 1017.4
20260506172456 52 272 3.5 4.3 0.00 0.00 0.00 49 1017.2
20260506171952 51 286 1.7 3.5 0.00 0.00 0.00 52 1017.2
20260506171450 50 251 2.6 5.2 0.00 0.00 0.00 53 1017.5
20260506170947 50 288 2.6 4.3 0.00 0.00 0.00 50 1017.6
20260506170443 50 330 2.6 4.3 0.00 0.00 0.00 52 1017.6
20260506165936 50 303 0.0 4.3 0.00 0.00 0.00 53 1017.5
20260506165434 49 334 1.7 3.5 0.00 0.00 0.00 53 1017.6
20260506164929 49 0 1.7 4.3 0.00 0.00 0.00 53 1018.0
20260506164427 49 103 1.7 5.2 0.00 0.00 0.00 51 1018.0
20260506163919 48 71 0.0 4.3 0.00 0.00 0.00 54 1017.9
20260506163414 48 199 3.5 3.5 0.00 0.00 0.00 52 1018.1
20260506162909 48 1 3.5 4.3 0.00 0.00 0.00 53 1018.1
20260506162407 47 280 4.3 5.2 0.00 0.00 0.00 55 1018.2
20260506161904 48 286 1.7 3.5 0.00 0.00 0.00 54 1018.3
20260506161402 46 124 4.3 4.3 0.00 0.00 0.00 55 1018.5
20260506160859 46 283 1.7 5.2 0.00 0.00 0.00 56 1018.5
20260506160356 47 328 0.9 2.6 0.00 0.00 0.00 56 1018.5
20260506155854 45 263 3.5 4.3 0.00 0.00 0.00 57 1018.7
20260506155350 46 248 1.7 1.7 0.00 0.00 0.00 54 1018.7
20260506153508 44 334 0.0 2.6 0.00 0.00 0.00 60 1018.8
20260506153005 44 289 0.0 2.6 0.00 0.00 0.00 59 1018.9
20260506152502 44 172 0.0 2.6 0.00 0.00 0.00 60 1019.0
20260506152000 43 253 1.7 4.3 0.00 0.00 0.00 60 1019.2
20260506151458 43 270 1.7 3.5 0.00 0.00 0.00 62 1019.2
20260506150955 42 285 1.7 3.5 0.00 0.00 0.00 61 1019.1
20260506150450 43 6 2.6 3.5 0.00 0.00 0.00 61 1019.1
20260506145948 43 3 1.7 4.3 0.00 0.00 0.00 60 1019.2
20260506145444 42 314 4.3 4.3 0.00 0.00 0.00 62 1019.3
20260506144942 42 284 2.6 3.5 0.00 0.00 0.00 61 1019.2
20260506144438 42 297 2.6 4.3 0.00 0.00 0.00 62 1019.2
20260506143937 43 15 2.6 2.6 0.00 0.00 0.00 62 1019.1
20260506143433 44 180 0.0 1.7 0.00 0.00 0.00 60 1019.2
20260506142932 42 282 0.0 2.6 0.00 0.00 0.00 62 1019.3
20260506142429 41 264 2.6 3.5 0.00 0.00 0.00 64 1019.2
20260506141927 40 199 3.5 4.3 0.00 0.00 0.00 65 1019.2
20260506141425 40 228 3.5 4.3 0.00 0.00 0.00 65 1019.2
20260506140923 40 291 2.6 2.6 0.00 0.00 0.00 65 1019.2
20260506140420 39 255 1.7 1.7 0.00 0.00 0.00 66 1019.1
20260506135916 39 251 0.9 2.6 0.00 0.00 0.00 66 1019.1
20260506135414 38 253 0.0 2.6 0.00 0.00 0.00 66 1019.2
20260506134910 38 174 0.9 2.6 0.00 0.00 0.00 66 1019.0
20260506134406 38 69 0.0 1.7 0.00 0.00 0.00 66 1019.2
20260506133903 38 139 3.5 6.1 0.00 0.00 0.00 66 1019.2
20260506133400 37 113 2.6 10.4 0.00 0.00 0.00 67 1018.9
20260506132856 37 124 7.8 10.4 0.00 0.00 0.00 68 1019.2
20260506132353 37 119 4.3 7.8 0.00 0.00 0.00 68 1019.2
20260506131852 36 108 4.3 8.7 0.00 0.00 0.00 68 1019.0
20260506131347 36 107 4.3 8.7 0.00 0.00 0.00 69 1019.1
20260506130845 35 125 4.3 7.0 0.00 0.00 0.00 70 1019.1
20260506130341 35 145 0.9 2.6 0.00 0.00 0.00 71 1019.1
20260506125839 35 109 4.3 4.3 0.00 0.00 0.00 71 1019.2
20260506125337 35 113 3.5 7.8 0.00 0.00 0.00 71 1019.1
20260506124835 35 125 3.5 6.1 0.00 0.00 0.00 70 1018.8
20260506124332 35 150 1.7 5.2 0.00 0.00 0.00 70 1019.0
20260506123830 35 99 1.7 9.6 0.00 0.00 0.00 70 1019.0
20260506123328 35 113 5.2 8.7 0.00 0.00 0.00 70 1019.0
20260506122825 35 125 3.5 7.8 0.00 0.00 0.00 69 1018.8
20260506122322 35 111 6.1 7.8 0.00 0.00 0.00 69 1018.9
20260506121820 35 125 5.2 7.0 0.00 0.00 0.00 69 1018.7
20260506121317 35 97 7.0 7.8 0.00 0.00 0.00 70 1018.7
20260506120814 35 118 4.3 11.3 0.00 0.00 0.00 69 1018.7
20260506120312 34 110 4.3 7.0 0.00 0.00 0.00 70 1018.7
20260506115809 34 116 3.5 7.0 0.00 0.00 0.00 71 1018.7
20260506115307 34 121 4.3 7.0 0.00 0.00 0.00 71 1018.5
20260506114804 35 126 7.0 13.0 0.00 0.00 0.00 71 1018.7
20260506114302 35 131 3.5 11.3 0.00 0.00 0.00 69 1018.6
20260506113800 35 128 5.2 8.7 0.00 0.00 0.00 70 1018.6
20260506113258 35 120 5.2 7.8 0.00 0.00 0.00 68 1018.7
20260506112754 36 113 2.6 7.8 0.00 0.00 0.00 68 1018.9
20260506112252 36 97 3.5 6.1 0.00 0.00 0.00 67 1018.9
20260506111749 36 129 1.7 6.1 0.00 0.00 0.00 66 1018.9
20260506111247 36 112 3.5 5.2 0.00 0.00 0.00 67 1018.8
20260506110743 36 127 1.7 5.2 0.00 0.00 0.00 65 1018.7
20260506110241 36 155 2.6 3.5 0.00 0.00 0.00 65 1018.9
20260506105737 37 102 3.5 7.0 0.00 0.00 0.00 64 1018.8
20260506105234 37 124 4.3 7.0 0.00 0.00 0.00 62 1018.8
20260506104732 37 126 2.6 6.1 0.00 0.00 0.00 62 1018.7
20260506104230 38 154 1.7 4.3 0.00 0.00 0.00 61 1019.0
20260506103727 38 54 0.9 1.7 0.00 0.00 0.00 64 1019.0
20260506103224 38 96 1.7 4.3 0.00 0.00 0.00 63 1018.9
20260506102722 38 66 0.0 2.6 0.00 0.00 0.00 63 1018.9
20260506102220 39 240 0.0 0.0 0.00 0.00 0.00 63 1018.7
20260506101716 39 304 1.7 1.7 0.00 0.00 0.00 61 1018.8
20260506101212 39 166 0.0 1.7 0.00 0.00 0.00 60 1018.6
20260506100711 40 188 1.7 5.2 0.00 0.00 0.00 56 1018.8
20260506100208 40 131 0.9 2.6 0.00 0.00 0.00 55 1018.7
20260506095707 40 131 2.6 7.8 0.00 0.00 0.00 55 1018.6
20260506095203 40 100 3.5 6.1 0.00 0.00 0.00 55 1018.7
20260506094700 41 140 5.2 7.8 0.00 0.00 0.00 54 1018.7
20260506094158 41 98 5.2 5.2 0.00 0.00 0.00 54 1018.7
20260506093657 41 100 3.5 8.7 0.00 0.00 0.00 54 1018.5
20260506093153 41 90 1.7 5.2 0.00 0.00 0.00 54 1018.6
20260506092651 41 135 1.7 7.0 0.00 0.00 0.00 53 1018.6
20260506092148 41 105 4.3 4.3 0.00 0.00 0.00 55 1018.8
20260506091646 41 146 2.6 3.5 0.00 0.00 0.00 55 1018.6
20260506091143 42 123 0.0 7.8 0.00 0.00 0.00 53 1018.6
20260506090641 42 155 4.3 5.2 0.00 0.00 0.00 53 1018.8
20260506090137 42 135 3.5 11.3 0.00 0.00 0.00 52 1018.5
20260506085634 42 119 6.1 13.0 0.00 0.00 0.00 52 1018.8
20260506085130 42 131 5.2 11.3 0.00 0.00 0.00 53 1018.9
20260506084627 42 94 4.3 13.0 0.00 0.00 0.00 52 1018.7
20260506084124 42 137 6.1 11.3 0.00 0.00 0.00 53 1018.6
20260506083621 42 115 5.2 10.4 0.00 0.00 0.00 53 1018.6
20260506083119 42 90 1.7 9.6 0.00 0.00 0.00 53 1018.9
20260506082615 42 149 5.2 12.2 0.00 0.00 0.00 53 1018.8
20260506082111 42 111 7.8 15.6 0.00 0.00 0.00 53 1018.9
20260506081610 42 130 2.6 11.3 0.00 0.00 0.00 53 1018.8
20260506081107 42 122 7.0 10.4 0.00 0.00 0.00 53 1018.9
20260506080604 42 108 8.7 13.9 0.00 0.00 0.00 53 1018.8
20260506073044 42 98 6.1 7.8 0.00 0.00 0.00 53 1019.1
20260506072541 42 111 3.5 4.3 0.00 0.00 0.00 54 1019.0
20260506072039 43 141 2.6 7.0 0.00 0.00 0.00 53 1019.0
20260506071537 43 116 3.5 7.0 0.00 0.00 0.00 53 1019.0
20260506071034 43 118 2.6 3.5 0.00 0.00 0.00 54 1018.9
20260506070531 43 144 5.2 7.8 0.00 0.00 0.00 53 1019.0
20260506062508 43 98 1.7 7.0 0.00 0.00 0.00 54 1018.9
20260506062005 43 110 3.5 4.3 0.00 0.00 0.00 55 1019.0
20260506061501 44 116 2.6 7.8 0.00 0.00 0.00 54 1018.7
20260506060959 44 145 2.6 2.6 0.00 0.00 0.00 53 1018.7
20260506060457 45 115 7.8 14.8 0.00 0.00 0.00 51 1018.6
20260506050926 45 117 0.0 4.3 0.00 0.00 0.00 53 1018.0
20260506050424 45 101 1.7 2.6 0.00 0.00 0.00 53 1018.2
20260506044914 46 90 1.7 2.6 0.00 0.00 0.00 51 1018.0
20260506044412 46 78 0.9 2.6 0.00 0.00 0.00 51 1018.1
20260506043909 46 85 2.6 4.3 0.00 0.00 0.00 51 1017.9
20260506043406 47 111 2.6 11.3 0.00 0.00 0.00 49 1018.1
20260506042904 47 99 7.0 7.8 0.00 0.00 0.00 50 1018.0
20260506042403 47 125 5.2 13.0 0.00 0.00 0.00 49 1018.0
20260506041901 47 129 10.4 11.3 0.00 0.00 0.00 49 1017.7
20260506041358 47 112 6.1 13.9 0.00 0.00 0.00 50 1017.9
20260506040855 47 109 9.6 10.4 0.00 0.00 0.00 50 1017.9
20260506040352 48 109 5.2 7.8 0.00 0.00 0.00 50 1017.5
20260506035848 48 102 0.9 10.4 0.00 0.00 0.00 50 1017.7
20260506035346 48 118 5.2 9.6 0.00 0.00 0.00 50 1017.5
20260506034843 48 148 6.1 13.9 0.00 0.00 0.00 48 1017.6
20260506034340 49 108 6.1 18.2 0.00 0.00 0.00 48 1017.4
20260506033837 49 111 10.4 12.2 0.00 0.00 0.00 48 1017.5
20260506033334 50 90 4.3 8.7 0.00 0.00 0.00 47 1017.4
20260506032831 50 97 12.2 12.2 0.00 0.00 0.00 47 1017.2
20260506032327 49 102 7.8 12.2 0.00 0.00 0.00 48 1017.2
20260506031825 49 65 6.1 13.9 0.00 0.00 0.00 48 1017.0
20260506031322 49 110 7.0 18.2 0.00 0.00 0.00 48 1017.1
20260506030819 49 133 7.0 16.5 0.00 0.00 0.00 48 1016.9
20260506030317 50 122 4.3 18.2 0.00 0.00 0.00 48 1016.7
20260506025814 50 122 8.7 13.9 0.00 0.00 0.00 49 1016.7
20260506025310 50 110 3.5 13.9 0.00 0.00 0.00 48 1016.4
20260506024808 50 99 7.0 13.0 0.00 0.00 0.00 48 1016.5
20260506024304 51 115 9.6 14.8 0.00 0.00 0.00 47 1016.2
20260506023800 51 87 6.1 17.4 0.00 0.00 0.00 46 1016.5
20260506023258 51 94 7.8 19.1 0.00 0.00 0.00 45 1016.4
20260506022754 52 98 7.0 15.6 0.00 0.00 0.00 45 1016.2
20260506022252 52 95 5.2 25.2 0.00 0.00 0.00 45 1016.0
20260506021750 52 109 14.8 23.5 0.00 0.00 0.00 44 1016.1
20260506021246 53 126 15.6 20.9 0.00 0.00 0.00 44 1015.9